Location: Azalea Creek
(37.1280°N, 119.2623°W)
Time: 00:14:08
(UTC+00:00)

STARLINK-25 - Pass Details

Date: 17 February 2020
Orbit: 529 x 530 km, 53.0° (Epoch: 04 April)

Event Time Altitude Azimuth Distance (km) Brightness Sun altitude
Rises 03:04:12 0° 224° (SW) 2,651 7.8 -17.8°
Reaches altitude 10° 03:06:24 10° 224° (SW) 1,766 6.8 -18.3°
Maximum altitude 03:10:24 84° 138° (SE) 536 3.4 -19.1°
Enters shadow 03:11:30 47° 53° (NE) 707 3.8 -19.3°
